+ View the NASA Portal
+ Center for Near-Earth Object Studies
IMPORTANT:
The SSD Announcement email list is now available. Major changes are coming in the near future, including possible hostname and/or URL changes. To be notified of such changes, subscribe to this email list.
Please visit
this page
for more details.
Don't show this message again
JPL Small-Body Database Browser
Search:
[
help
]
226092 (2002 OC10)
Classification:
Main-belt Asteroid
SPK-ID:
2226092
[
Ephemeris
|
Orbit Diagram
|
Orbital Elements
|
Mission Design
|
Physical Parameters
|
Discovery Circumstances
|
Close-Approach Data
]
[ show orbit diagram ]
Orbital Elements at Epoch 2458600.5 (2019-Apr-27.0) TDB
Reference:
JPL 9
(heliocentric ecliptic J2000)
Element
Value
Uncertainty (1-sigma)
Units
e
.182765280374552
4.4806e-08
a
2.223667529232745
9.9859e-09
au
q
1.817258309792736
1.0169e-07
au
i
5.509198200828762
6.0161e-06
deg
node
246.8057835813168
5.3587e-05
deg
peri
68.43340916416243
5.9092e-05
deg
M
19.90491335273144
2.2328e-05
deg
t
p
2458533.532976046274
(2019-Feb-19.03297605)
7.4849e-05
TDB
period
1211.164710748818
3.32
8.1586e-06
2.234e-08
d
yr
n
.2972345518368227
2.0022e-09
deg/d
Q
2.630076748672756
1.1811e-08
au
Orbit Determination Parameters
# obs. used (total)
214
data-arc span
6340 days (17.36 yr)
first obs. used
2002-07-18
last obs. used
2019-11-26
planetary ephem.
DE431
SB-pert. ephem.
SB431-N16
condition code
0
norm. resid. RMS
.63265
source
ORB
producer
Otto Matic
solution date
2019-Dec-04 17:25:54
Additional Information
Earth MOID
= .811439 au
Jupiter MOID
= 2.65375 au
T_jup
= 3.619
[ show covariance matrix ]
[
Ephemeris
|
Orbit Diagram
|
Orbital Elements
|
Mission Design
|
Physical Parameters
|
Discovery Circumstances
|
Close-Approach Data
]
Physical Parameter Table
Parameter
Symbol
Value
Units
Sigma
Reference
Notes
absolute magnitude
H
17.2
n/a
MPO440180
226092 (2002 OC10)
Discovered 2002-Jul-21 by NEAT at Palomar
Reference:
20091202/Numbers.arc
Last Updated:
2009-12-04
[ show close-approach data ]
[
Ephemeris
|
Orbit Diagram
|
Orbital Elements
|
Mission Design
|
Physical Parameters
|
Discovery Circumstances
|
Close-Approach Data
]
2019-Dec-10 02:56 UT
(server date/time)
Site Manager:
Ryan S. Park
Webmaster
:
Alan B. Chamberlin